Terug naar catalogus

COSMOS 1275 DEB

ActiefPO
NORAD 12649·DEBRIS·🇷🇺 Russia

Gelanceerd Jun 4, 1981 vanaf Plesetsk Cosmodrome

Loading…

Volgende Passages (komende 24 uur)

TLE

VersSource: Space-Track

Epoch: Sep 14, 2026, 14:32 UTC

1 12649U 81053D   26257.60557984  .00000312  00000-0  27677-3 0  9993
2 12649  82.9157 126.6658 0047554 257.7233 130.6182 13.81497822263641

Volg COSMOS 1275 DEB in realtime met AllMySat

Download on the App Store